Meteo Giornale » Osservazioni meteo Lituania » Siauliai Intl
ore: 21:20 - Osservazioni Meteo Siauliai Intl
Lat. 55° 54' N Lon. 23° 24' E Alt. 135 metri s.l.m.
15 °C
Sereno
Temp. 24 Ore
13 °C
18 °C
Ovest/Sud-Ovest
11.1 Km/h
Dew point 15 °C
Umidità 100 %
Visibilità 10 Km
Il sole sorge alle ore 06:31
Il sole tramonta alle ore 20:21
| Data e Ora | Cielo e Fenomeni | T °C | DP °C | Um. % | Pres. hPa | Vis. km | Vento km/h | |
|---|---|---|---|---|---|---|---|---|
| Oggi h: 21:20 | Sereno | 15 | 15 | 100 | 1011 | 10 | O/SO 11.1 | |
| Oggi h: 20:50 | Sereno | 16 | 15 | 93 | 1011 | 10 | O/SO 13 | |
| Oggi h: 20:20 | Sereno | 16 | 15 | 93 | 1010 | 10 | O 14.8 | |
| Oggi h: 19:50 | Sereno | 16 | 15 | 93 | 1010 | 10 | O 14.8 | |
| Oggi h: 19:20 | Sereno | 16 | 15 | 93 | 1010 | 10 | O 14.8 | |
| Oggi h: 18:50 | Pioggia nelle vicinanze | 16 | 16 | 100 | 1010 | 9 | SO 24 | |
| Oggi h: 18:20 | Nuvoloso | 17 | 16 | 93 | 1010 | 10 | O/SO 13 | |
| Oggi h: 17:50 | Nuvoloso | 17 | 15 | 88 | 1010 | 10 | O 18.5 | |
| Oggi h: 17:20 | Sereno | 17 | 15 | 88 | 1010 | 10 | O/SO 9.3 | |
| Oggi h: 16:50 | Sereno | 16 | 16 | 100 | 1010 | 10 | SO 9.3 | |
| Oggi h: 16:20 | Sereno | 15 | 15 | 100 | 1010 | 10 | SO 9.3 | |
| Oggi h: 15:50 | Sereno | 15 | 15 | 100 | 1010 | 10 | N 3.7 | |
| Oggi h: 15:20 | Pioggia nelle vicinanze Temporale nelle vicinanze | 15 | 15 | 100 | 1010 | 10 | N 5.5 | |
| Oggi h: 14:50 | Temporale | 14 | 14 | 100 | 1010 | 10 | SO 7.4 | |
| Oggi h: 14:20 | Pioggia | 14 | 14 | 100 | 1010 | 10 | O 9.3 | |
| Oggi h: 13:50 | Pioggia | 14 | 14 | 100 | 1010 | 9 | N 3.7 | |
| Oggi h: 13:20 | Pioggia Temporale nelle vicinanze | 15 | 13 | 87 | 1011 | 6 | O 27.8 | |
| Oggi h: 12:50 | Temporale Pioggia nelle vicinanze | 18 | 15 | 82 | 1010 | 10 | O/SO 11.1 | |
| Oggi h: 12:20 | Sereno | 18 | 15 | 82 | 1010 | 10 | N 5.5 | |
| Oggi h: 11:50 | Nuvoloso | 17 | 15 | 88 | 1010 | 10 | N 3.7 | |
| Oggi h: 11:20 | Pioggia | 16 | 14 | 87 | 1010 | 10 | N 5.5 | |
| Oggi h: 10:50 | Pioggia | 16 | 14 | 87 | 1010 | 10 | S/SE 7.4 | |
| Oggi h: 10:20 | Sereno | 16 | 14 | 87 | 1010 | 10 | S/SE 7.4 | |
| Oggi h: 09:50 | Sereno | 16 | 14 | 87 | 1010 | 10 | S 9.3 | |
| Oggi h: 09:20 | Poco Nuvoloso | 16 | 14 | 87 | 1010 | 10 | S 7.4 | |
| Oggi h: 08:50 | Sereno | 15 | 15 | 100 | 1010 | 10 | N 5.5 | |
| Oggi h: 08:20 | Sereno | 14 | 14 | 100 | 1010 | 10 | N 0 | |
| Oggi h: 07:50 | Sereno | 14 | 14 | 100 | 1010 | 10 | N 3.7 | |
| Oggi h: 07:20 | Sereno | 13 | 13 | 100 | 1010 | 10 | N 0 | |
| Oggi h: 06:50 | Nebbia a tratti Nebbia | 13 | 13 | 100 | 1010 | 0.6 | N 5.5 | |
| Oggi h: 06:20 | Nebbia Foschia | 13 | 13 | 100 | 1010 | 5 | N 1.8 | |
| Oggi h: 05:50 | Sereno | 14 | 14 | 100 | 1010 | 10 | N 3.7 | |
| Oggi h: 05:20 | Sereno | 15 | 15 | 100 | 1010 | 10 | N 3.7 | |
| Oggi h: 04:50 | Sereno | 14 | 14 | 100 | 1011 | 10 | N 3.7 | |
| Oggi h: 04:20 | Sereno | 14 | 14 | 100 | 1011 | 10 | N 0 | |
| Oggi h: 03:50 | Sereno | 14 | 14 | 100 | 1011 | 10 | N 3.7 | |
| Oggi h: 03:20 | Sereno | 13 | 13 | 100 | 1011 | 8 | N 3.7 | |
| Oggi h: 02:50 | Sereno | 13 | 13 | 100 | 1011 | 2 | N 5.5 | |
| Oggi h: 02:20 | Sereno | 13 | 13 | 100 | 1011 | 10 | N 1.8 | |
| Oggi h: 01:50 | Sereno | 13 | 13 | 100 | 1011 | 10 | SE 7.4 | |
| Oggi h: 00:50 | Sereno | 14 | 13 | 93 | 1012 | 10 | N 5.5 | |
| Oggi h: 00:20 | Sereno | 14 | 14 | 100 | 1012 | 0.9 | S/SE 9.3 | |
| Ieri h: 23:50 | Poco Nuvoloso | 15 | 14 | 93 | 1012 | 10 | N 5.5 | |
| Ieri h: 23:20 | Sereno | 16 | 15 | 93 | 1012 | 10 | N 5.5 | |
| Ieri h: 22:50 | Pioggia | 17 | 14 | 82 | 1012 | 10 | S 7.4 | |
| Ieri h: 22:20 | Pioggia | 18 | 15 | 82 | 1012 | 10 | S/SE 13 | |
| Ieri h: 21:50 | Sereno | 17 | 14 | 82 | 1011 | 10 | N 0 | |



